Regional Weather Roundup
Issued by NWS

Home | Current Version | Previous Version | Graphics & Text | Print | Product List | Glossary On
Versions: 1 2 3 4 5 6 7 8 9 10 11 12 13 14 15 16 17 18 19 20 21 22 23 24 25 26 27 28 29 30 31 32 33 34 35 36 37 38 39 40 41 42 43 44 45 46 47 48 49 50
000
ASUS45 KBOU 301807
RWRCO

WEATHER ROUNDUP FOR COLORADO
NATIONAL WEATHER SERVICE DENVER/BOULDER CO
1200 PM MDT MON MAY 30 2016

NOTE: "FAIR" INDICATES FEW OR NO CLOUDS BELOW 12000 FEET WITH NO
SIGNIFICANT WEATHER AND/OR OBSTRUCTIONS TO VISIBILITY.

COZ001>005-013-030-031-301900-
...NORTHWEST COLORADO...

CITY           SKY/WX    TMP DP  RH WIND       PRES   REMARKS
CRAIG          FAIR      66  41  40 VRB5      30.14F
HAYDEN         FAIR      63  37  39 NW8       30.16S
MEEKER         FAIR      67  41  38 S7        30.14F
MOUNT WERNER   NOT AVBL
STEAMBOAT SPGS FAIR      60  39  46 S7        30.16F
WALDEN         NOT AVBL
$$

COZ006>008-011-301900-
...WEST CENTRAL VALLEYS...

CITY           SKY/WX    TMP DP  RH WIND       PRES   REMARKS
GRAND JUNCTION FAIR      72  38  29 MISG      30.05F
MONTROSE       FAIR      72  31  22 VRB3      30.08F
EAGLE          SUNNY     66  32  28 CALM      30.11F
RIFLE          FAIR      71  36  27 NE3       30.07F
DELTA          FAIR      74  31  20 SW3       30.05F
NUCLA          FAIR      72  28  20 E5        30.13F
$$

COZ017>023-064>068-301900-
...SOUTHWEST COLORADO...

CITY           SKY/WX    TMP DP  RH WIND       PRES   REMARKS
DURANGO        FAIR      72  18  13 SW7G17    30.15F
CORTEZ         FAIR      76  20  12 SW14G21   30.11F
PAGOSA SPRINGS FAIR      69  15  12 SW7G16    30.21F
TELLURIDE      PTSUNNY   64  14  14 S3        30.28S
WOLF CREEK PAS FAIR      45  14  29 SW16G28   30.46S
$$

COZ009-010-012-014-032>034-037-058>063-301900-
...CENTRAL COLORADO...

CITY           SKY/WX    TMP DP  RH WIND       PRES   REMARKS
ASPEN          FAIR      68  30  24 N14G22    30.15F
BUENA VISTA    FAIR      65  23  19 E6        30.16F
COPPER MTN     NOT AVBL
BERTHOUD PASS  PTSUNNY   37  30  75 W18G31    30.41F
COTTONWOOD PAS PTSUNNY   63  16  16 N5G16     30.28F
GUNNISON       FAIR      64  34  32 SW7       30.20F
KREMMLING      FAIR      68  32  26 N9        30.14F
LEADVILLE      PTSUNNY   54  12  18 W20G25    30.28R
MONARCH PASS   PTSUNNY   43  18  36 SW26G35   30.51F
SALIDA         FAIR      70  25  18 SW9       30.22F
SUNLIGHT       FAIR      52  32  46 CALM      30.38S
WILKERSON PASS PTSUNNY   55  18  22 W10G22    30.39S
$$

COZ069>075-301900-
...SAN LUIS VALLEY/SANGRE DE CRISTO MOUNTAINS...

CITY           SKY/WX    TMP DP  RH WIND       PRES   REMARKS
ALAMOSA        FAIR      67  31  26 VRB6      30.17F
LA VETA PASS   FAIR      61  27  27 S7        30.33F
SAGUACHE       PTSUNNY   63  32  31 S3        30.21F
$$

COZ035-036-038>040-301900-
...NORTHERN COLORADO FRONT RANGE...

CITY           SKY/WX    TMP DP  RH WIND       PRES   REMARKS
DENVER INTL AP FAIR      74  44  34 E5        30.00F
DMNS CITY PARK   N/A     75  38  26 NE7G15    29.98F
AURORA         PTSUNNY   75  42  30 NE6       30.01F
FRONT RANGE AP MOSUNNY   73  46  38 SE5       30.01F
ERIE MUNI ARPT FAIR      74  45  35 E8        29.98F
BOULDER MUN AP FAIR      77  39  25 E7        29.97F
CENTENNIAL     PTSUNNY   74  28  18 NW26G35   30.03S
BROOMFIELD     MOSUNNY   75  37  25 VRB6      30.01F
FORT COLLINS   FAIR      73  50  43 E7        29.97F
LONGMONT       FAIR      78  44  30 CALM      29.99F
$$

COZ041-046-047-076>085-087-088-301900-
...PIKES PEAK/PALMER DIVIDE AND SOUTHERN FOOTHILLS...

CITY           SKY/WX    TMP DP  RH WIND       PRES   REMARKS
COLO. SPRINGS  FAIR      74  43  32 SE10      30.07F
A. F. ACADEMY  PTSUNNY   72  39  30 SE6       30.06F
SCHRIEVER AFB  NOT AVBL
ELLICOTT       NOT AVBL
FALCON         FAIR      73  35  25 S9        30.12S
FORT CARSON    PTSUNNY   76  44  31 SE12G21   30.02F
LIMON          FAIR      72  46  39 VRB6      30.03F
MONUMENT HILL  FAIR      68  32  26 SW10      30.11F
TRINIDAD       FAIR      75  39  27 E7        30.05F
$$

COZ042>045-048>051-090-091-301900-
...NORTHEAST COLORADO...

CITY           SKY/WX    TMP DP  RH WIND       PRES   REMARKS
GREELEY ARPT   FAIR      75  48  38 SE5       29.97F
AKRON          FAIR      75  51  43 E9        29.99F
BURLINGTON     FAIR      76  51  41 SW10      29.99F
WRAY           NOT AVBL
STERLING       FAIR      73  54  49 S6        29.94F
HOLYOKE        FAIR      79  50  36 S6        29.95F
FORT MORGAN    FAIR      75  46  35 SW5       29.98F
$$

COZ086-089-092>099-301900-
...SOUTHEAST COLORADO...

CITY           SKY/WX    TMP DP  RH WIND       PRES   REMARKS
PUEBLO         FAIR      76  47  35 SE6       29.98F
LA JUNTA       FAIR      74  50  42 VRB3      29.98F
LAMAR          FAIR      81  49  32 S9        29.93F
SPRINGFIELD      N/A     74  54  49 S14       30.00F
$$



USA.gov is the U.S. government's official web portal to all federal, state and local government web resources and services.